Location: Albany
(35.0000°S, 118.0000°E)
Time: 02:43:24
(UTC-04:00)

SJ-6B - Visible Passes

Search period start: 24 August 2016 00:00
Search period end: 03 September 2016 00:00
Orbit: 511 x 586 km, 97.8° (Epoch: 22 August)

Date Brightness Start Highest point End Pass type
(mag) Time Alt. Az. Time Alt. Az. Time Alt. Az.
24 Aug 3.0 07:40:14 66° SW 07:40:31 69° WSW 07:44:23 10° NNW visible
25 Aug 2.8 07:35:19 62° S 07:35:55 80° WSW 07:39:48 10° NNW visible
26 Aug 2.7 07:30:19 50° SSE 07:31:18 88° E 07:35:11 10° NNW visible
27 Aug 2.6 07:25:10 36° SSE 07:26:42 77° ENE 07:30:33 10° N visible
27 Aug 5.3 18:04:08 10° NE 18:07:43 28° ESE 18:11:20 10° SSE visible
28 Aug 2.6 07:18:06 10° SSE 07:22:05 66° ENE 07:25:53 10° N visible
28 Aug 5.5 17:59:43 10° NE 18:03:09 25° ESE 18:06:36 10° SSE visible
29 Aug 2.8 07:13:32 10° SSE 07:17:27 56° E 07:21:13 10° N visible
29 Aug 5.7 17:55:19 10° ENE 17:58:34 22° ESE 18:01:51 10° SSE visible
30 Aug 2.9 07:08:59 10° SSE 07:12:49 48° E 07:16:31 10° N visible
30 Aug 6.2 08:46:23 10° WSW 08:46:59 10° WSW 08:47:34 10° WSW visible
30 Aug 5.8 17:50:58 10° ENE 17:54:00 20° ESE 17:57:03 10° SSE visible
31 Aug 3.1 07:04:26 10° SSE 07:08:11 41° E 07:11:48 10° N visible
31 Aug 6.0 08:40:58 10° SW 08:42:25 12° WSW 08:43:50 10° W visible
31 Aug 5.9 17:46:39 10° ENE 17:49:26 18° ESE 17:52:14 10° SSE visible
01 Sep 3.3 06:59:55 10° SSE 07:03:33 35° E 07:07:04 10° NNE visible
01 Sep 5.9 08:35:56 10° SW 08:37:51 13° WSW 08:39:45 10° W visible
01 Sep 6.0 17:42:23 10° ENE 17:44:52 16° ESE 17:47:23 10° SSE visible
02 Sep 3.5 06:55:24 10° SE 06:58:54 31° E 07:02:18 10° NNE visible
02 Sep 5.7 08:31:00 10° SSW 08:33:16 15° WSW 08:35:31 10° WNW visible
02 Sep 6.1 17:38:11 10° E 17:40:19 14° ESE 17:42:26 10° SE visible
